Tevel 2-1

operational
NORAD ID: 63221 Int'l Des: NNA 2025-052 Owner: TAU/ISA Country: IL
LEOCIRCULARRETROGRADESSO

About Tevel 2-1

Description loading...

Live Position

Loading 3D Globe...

Upcoming Passes

Altitude History

Altitude vs Time

uPlot chart will show altitude changes over time

Two-Line Element Set

1 63221U 25052M 26061.13908755 .00005015 00000-0 22888-3 0 9993
2 63221 97.4028 315.1720 0004413 134.4867 225.6730 15.21047179 53561
Epoch: Mar 2, 2026 • Age: 27 hours

Current Status

Altitude 527.4 km
Velocity 7.60 km/s
Sub-Earth Point -61.39°S, 76.01°W
Launch Date Mar 15, 2025
Age 0.9 years
Type other

Technical Details

Classification Payload
Mass 1.00 kg
Dry Mass 1.00 kg
Total Mass 1.00 kg
Length 0.10 m
Diameter 0.10 m
Span 0.10 m
Shape Box
Manufacturer ISA/TAU
Bus Type Cubesat 1U
Phase Status In Orbit
Owner/State TAU/ISA/IL

Large Constellations

Loading constellations...